Showing default

ION-MK01, 46274

Orbit data source: Space-Track

ION-MK01, 46274 is a payload satellite owned by D-ORBIT (IT) in SSO that was launched on Thu, 03 Sep 2020 UTC via a VEGA launch vehicle from the French Guiana (FRGUI). Payload-class satellites include a variety of spacecraft equipped with specific instruments for various scientific and technological missions. These include communications satellites like Starlink; space stations such as the ISS; scientific satellites like the Hubble; Earth observation satellites from companies like Planet Labs, Umbra, and HawkEye 360; GPS; miniature CubeSats for education and research; and military/defense satellites.

Loading next visibility...
Identifier
46274, 2020-061C
Orbit
SSO
Country
Flag of ITIT
Related business
Manufacturer
D-ORBIT
Mission
Operational Commercial Technology
Bus & Motor
ION-SC, PM200
Mass
220 kg wet, 150 kg dry
Launch date (UTC)
2020-09-03 (5 years ago)
Launch vehicle
VEGA
Launch site
French Guiana (FRGUI)
Object type
Payload
Rocket body
Debris
Shape & HBR
Box, 0.2 m
Radar Cross Section
0.240 m², Medium (>0.1 m² and < 1m²)

Expand to show TLE details & history
Last TLE update: 18 hours ago

TLE from 18 hours ago
0 ION-MK01
1 46274U 20061C   25287.93145344  .00048189  00000-0  60060-3 0  9994
2 46274  97.2280 357.0519 0002742 115.2149 244.9392 15.59768069284767
Epoch: 2025-10-14T22:21Z
TLE epoch observation values (Epoch: 2025-10-14T22:21:17.577Z)
Latitude
-0.00007°
Longitude
-1.98413°
Altitude
392.263 km
Speed
7.674 km/s
True Right ascension
23h 48m 12s
True Declination
0° 00' 00"
Sunlit
Object was in full shadow at epoch
Visualization orbit readout
Latitude
Unknown
Longitude
Unknown
Altitude
Unknown
Speed
Unknown
Apparent Right ascension
Unknown
Apparent Declination
Unknown
Sunlit
N/A
Visualization observer readout
Local Sidereal Time
10:33:47
Azimuth
Unknown
Elevation
Unknown
Doppler factor
Unknown
Orbital elements
Apogee altitude
387.088 km
Perigee altitude
383.379 km
Semi-major axis
6,763.37 km
Eccentricity
0.00027
Inclination
97.228°
RAAN
357.0519°
Arg. of periapsis
115.2149°
True anomaly
244.91074°
Mean anomaly
244.9392°
Eccentric anomaly
244.92497°
Mean motion
3.9021 °/min
Orbital period
92.26 mins
BSTAR
0.0006006
Loading maneuver chart data...
Computing Atmospheric mass density...

Documentation

Showing up to 5 results
|